CAPE
60 121 145 563 82 95 25 38 48 7 0 9 17 49 25 261 11 1 113 260 251 173 185 145 57 71 144 81 161 167 221 207 398 668 695 1053 1229 983 840 814 744 861 1166 917 1074 1374 1428 1403 1460
7 64 313 299 48 28 41 90 21 17 38 38 140 215 247 33 60 41 134 350 267 395 349 30 75 110 50 26 49 122 56 0 108 415 884 1080 1013 1047 1084 1220 1163 1223 1260 917 1146 1198 1142 1312 1224
0 20 366 78 1 19 35 88 38 37 30 87 118 203 131 0 37 89 264 336 368 558 531 255 228 47 41 24 15 50 20 41 86 384 1221 1355 856 388 381 515 785 1273 1236 1061 792 930 866 713 918
138 322 402 51 16 47 72 135 86 54 62 5 3 0 144 93 87 249 310 323 417 468 534 508 303 76 114 68 45 63 76 149 127 353 1043 1342 1322 1409 1177 926 953 783 561 491 681 657 381 519 967
234 243 78 64 37 32 67 88 29 46 51 5 5 0 6 406 361 211 320 260 329 492 655 553 330 243 142 182 130 104 269 225 634 1272 1465 1408 1322 1414 1126 839 696 667 726 725 569 455 403 861 1456
169 147 47 25 36 60 78 57 39 15 57 0 0 0 40 320 102 210 348 335 488 622 1092 992 543 575 535 152 238 295 386 642 1252 1561 1556 1492 1717 1290 1089 931 784 508 568 544 499 371 453 889 1150
108 79 62 60 64 55 48 79 8 8 22 6 28 0 37 98 145 252 325 575 737 978 1196 1360 1506 1385 869 641 450 281 677 1406 1745 1606 1610 1547 1454 1460 1401 1241 1080 885 678 701 732 470 373 652 789
113 81 54 79 59 73 93 115 12 0 23 59 16 0 0 74 230 285 496 799 969 1062 1120 1482 1718 1477 1808 1528 991 898 716 1465 1766 1729 1797 1793 1914 1620 1724 1585 1536 1419 1208 1066 711 465 350 484 661
58 33 45 57 107 111 106 32 59 57 4 91 155 12 2 155 234 304 529 755 1016 1124 1312 1497 1460 1370 1874 1843 1595 1759 1634 1804 1661 1857 1292 940 1081 1121 1200 921 1038 1296 1343 1243 1134 1178 1251 1471 910
67 40 51 114 193 167 85 20 77 6 25 108 133 267 141 185 228 207 356 509 833 1071 1341 1600 1429 1161 1652 1576 2017 2006 1749 1506 1401 1079 707 956 1028 901 305 43 252 571 737 613 768 875 1057 1082 1324
24 45 102 222 193 189 65 33 68 12 0 31 2 83 165 234 172 178 277 417 473 907 977 1299 1455 1449 1540 1547 1457 1477 1173 823 563 454 829 835 740 395 416 647 915 1089 816 1098 1081 1212 1193 1363 1342
38 6 36 120 102 178 81 121 34 68 64 3 107 204 280 344 275 216 212 259 351 821 926 1088 1230 1261 1359 1522 1018 869 638 428 446 632 610 460 365 299 670 1073 1162 1206 1054 1312 1523 1558 1318 1016 794
15 14 16 67 61 105 168 84 54 92 55 18 180 230 257 354 345 231 143 151 344 482 614 694 1030 1113 1132 1110 1085 995 760 648 461 947 355 141 140 665 1187 1377 1657 1676 1554 1275 1404 1266 884 668 436
10 34 23 43 29 53 90 118 54 119 108 31 114 170 276 361 303 153 108 91 184 85 100 366 728 880 871 894 1148 1298 1367 1319 1234 975 437 227 695 1213 1289 1612 1652 1839 1888 2282 1618 1571 958 1071 967
92 19 74 46 31 43 68 43 45 73 116 64 126 188 237 314 172 200 195 78 93 13 104 309 456 633 587 853 1237 1369 1370 1153 885 646 493 763 906 1260 1127 1472 1663 1898 1908 1959 2109 1662 929 1066 1229
197 133 92 44 42 81 43 26 93 29 113 72 108 156 203 233 203 262 285 279 370 270 341 456 287 395 455 619 1139 1219 1247 981 200 86 655 662 791 1039 1263 1662 1751 2193 2335 2557 2401 1334 876 928 1078
146 33 68 14 2 3 6 18 3 7 94 70 74 119 169 185 238 284 277 365 484 603 622 545 653 432 431 618 999 1032 950 839 142 404 300 762 803 880 1311 1533 1893 2357 2566 2239 2318 1635 1115 1073 1079
3 25 53 27 5 0 0 0 30 1 48 48 75 89 126 161 234 286 295 356 400 480 558 497 722 666 772 748 707 730 856 881 396 239 101 736 416 494 1226 1452 1593 2048 2667 2486 1923 1664 1363 1309 1221
59 58 23 11 1 0 0 0 7 36 56 46 61 103 89 160 249 291 325 358 395 449 476 325 504 636 811 600 622 660 519 870 546 556 260 664 156 1212 1058 1283 1075 1992 2356 2472 1800 1338 1119 871 818
6 44 20 28 0 0 0 0 0 17 22 60 80 107 103 134 233 283 324 342 341 266 311 335 443 444 727 787 677 707 771 819 761 743 1157 447 22 1078 1659 772 827 1378 2342 2037 2287 1677 1081 842 895
0 0 54 52 3 0 0 0 24 18 35 52 61 74 106 130 170 283 318 325 322 278 277 418 523 337 610 555 622 655 701 808 336 517 969 819 159 646 1604 718 1073 1472 2160 1737 1281 1437 1113 1167 463
0 99 125 76 16 5 36 0 0 29 15 33 66 37 54 101 150 233 316 317 328 378 366 439 501 332 380 496 628 524 540 493 528 569 990 1083 1026 1096 1258 1394 1215 1473 1919 1806 1385 591 884 554 627
129 185 102 193 83 28 32 18 28 3 25 29 45 60 46 52 112 180 260 309 323 391 382 361 422 294 365 446 759 613 592 527 776 790 946 765 1182 1321 766 1638 1558 1327 1602 2036 1742 389 611 393 399
184 93 47 85 37 5 0 34 16 8 0 62 36 59 38 32 76 121 234 316 342 329 336 272 251 208 360 497 638 687 583 518 578 647 734 842 868 1103 994 1167 1582 1664 1113 1664 1769 1074 1177 1277 1182
166 6 10 23 14 25 1 22 23 8 1 10 37 31 56 57 62 107 197 140 311 299 308 265 199 117 244 503 440 392 376 528 576 650 637 730 856 666 998 1052 1140 968 1106 1193 1829 1959 1924 1545 1668
112 33 50 22 9 12 7 0 23 41 0 33 24 35 47 32 73 95 162 221 330 322 359 302 292 129 182 363 494 520 456 470 553 610 622 642 716 786 830 1019 1214 1290 1176 1365 1640 1762 1744 2023 2055
165 32 75 39 0 0 0 0 100 246 40 17 44 14 13 63 74 109 151 208 280 329 347 362 363 314 220 213 445 523 506 482 519 583 683 669 747 728 727 735 905 992 1014 1420 1437 1629 1576 1715 1954
234 81 71 32 0 0 0 10 24 168 212 262 14 32 23 39 56 94 139 177 265 301 349 358 393 360 333 298 306 408 581 663 675 703 697 764 782 764 699 802 828 868 915 1150 1293 1470 1490 1368 1587
228 96 36 23 0 0 0 4 124 165 148 250 217 69 75 63 33 50 100 88 105 319 253 308 339 341 409 338 371 396 416 615 764 770 802 763 808 914 859 1010 1092 1128 1035 943 1157 860 1130 1177 1203
75 129 48 8 0 0 0 0 74 105 186 244 213 248 171 147 166 177 96 70 93 181 253 269 378 358 399 428 386 398 437 470 597 725 481 599 769 965 931 992 903 862 1036 1238 1038 947 884 944 808
CIN
-270 -240 -253 -129 -91 -36 -32 -21 -51 -39 0 -98 -109 -87 -15 -83 -16 -9 -105 -37 -25 -22 -15 -7 -18 -13 -10 -21 -8 -4 -6 -16 -3 -1 0 0 0 0 0 0 -1 0 0 -2 -1 0 0 0 0
-366 -290 -195 -185 -54 -17 -22 -46 -44 -70 -90 -87 -81 -69 -71 -123 -144 -153 -85 -20 -29 -16 -5 -37 -23 -11 -12 -13 -23 -7 -20 0 -33 -3 0 0 -1 0 0 0 0 0 0 -3 0 -1 -2 0 0
0 -337 -126 -112 -5 -20 -20 -50 -59 -74 -80 -56 -65 -86 -103 0 -142 -104 -75 -56 -29 -16 -3 -9 -8 -19 -15 -22 -29 -28 -25 -15 -12 -8 0 0 0 -15 -19 -15 -7 0 -1 -4 -20 -8 -9 -13 -15
-180 -138 -123 -74 -45 -63 -38 -63 -68 -66 -59 -16 -1 0 -78 -95 -106 -80 -71 -69 -39 -18 0 -4 -9 -18 -22 -41 -38 -25 -27 -12 -16 -10 -2 0 0 0 0 0 -8 -14 -32 -34 -15 -15 -38 -36 -18
-152 -136 -83 -59 -53 -60 -65 -63 -58 -47 -53 -20 -18 0 -12 -14 -57 -93 -69 -68 -52 -26 -2 -8 -8 -8 -12 -4 -8 -12 -52 -9 -2 0 0 0 0 0 0 -3 -23 -30 -21 -18 -26 -36 -53 -30 -13
-97 -131 -60 -28 -57 -74 -55 -64 -55 -54 -65 0 0 0 -87 -26 -89 -82 -66 -59 -34 -26 -5 -2 -10 -9 -7 -23 -8 -12 -37 -14 -2 -1 0 -1 0 0 0 -14 -21 -35 -30 -34 -35 -54 -56 -38 -32
-87 -83 -69 -55 -63 -68 -58 -52 -46 -76 -79 -58 -87 0 -95 -70 -59 -73 -69 -38 -16 -17 -15 -4 0 -1 -4 -7 -1 -7 -4 -3 0 0 0 0 0 0 0 0 -6 -18 -31 -28 -36 -59 -78 -69 -63
-120 -100 -67 -71 -60 -57 -60 -53 -90 0 -47 -89 -101 0 0 -107 -53 -64 -42 -25 -11 -7 -16 -4 -1 -2 0 0 -1 -3 -7 -1 0 0 0 -2 0 0 0 -1 0 -4 -14 -23 -48 -76 -95 -98 -86
-210 -55 -58 -60 -48 -80 -76 -82 -73 -82 -13 -53 -52 -58 -25 -101 -71 -64 -45 -33 -11 -7 -5 0 -6 -8 0 0 0 -4 -1 0 -2 0 -8 -14 -11 -13 -7 -29 -33 -29 -25 -34 -40 -49 -49 -41 -65
-152 -53 -57 -96 -75 -71 -73 -61 -66 -60 -24 -80 -96 -65 -98 -94 -89 -105 -92 -78 -32 -9 -3 0 0 -9 0 -1 0 -1 -4 -8 -13 -17 -35 -29 -32 -40 -55 -129 -98 -70 -67 -68 -66 -67 -63 -55 -22
-75 -52 -73 -67 -78 -73 -67 -57 -62 -53 0 -65 -25 -117 -84 -68 -107 -105 -97 -87 -95 -39 -24 -9 -2 -8 -5 -8 -5 -10 -11 -29 -44 -64 -41 -44 -49 -69 -59 -51 -50 -47 -60 -41 -46 -40 -35 -40 -33
-49 -98 -81 -85 -99 -53 -64 -65 -45 -37 -32 -63 -76 -99 -73 -38 -74 -99 -108 -119 -122 -49 -34 -23 -17 -11 -12 -10 -30 -38 -46 -56 -46 -54 -60 -59 -56 -70 -73 -59 -60 -52 -58 -45 -45 -38 -55 -59 -88
-72 -96 -79 -62 -61 -58 -56 -72 -61 -52 -64 -62 -87 -93 -78 -30 -35 -92 -111 -135 -102 -85 -69 -62 -32 -25 -28 -38 -34 -31 -34 -37 -49 -37 -79 -57 -75 -59 -53 -53 -48 -42 -44 -45 -40 -53 -81 -88 -124
-63 -72 -74 -51 -33 -30 -17 -48 -66 -83 -88 -70 -73 -77 -74 -56 -57 -121 -155 -152 -134 -156 -158 -105 -62 -50 -58 -42 -28 -19 -20 -24 -35 -47 -72 -95 -72 -53 -46 -40 -35 -36 -40 -36 -46 -53 -61 -55 -70
-58 -57 -17 -75 -38 -21 -20 -18 -49 -82 -78 -54 -59 -60 -75 -69 -95 -73 -100 -133 -130 -86 -144 -99 -76 -65 -82 -39 -21 -22 -22 -34 -41 -59 -76 -69 -76 -55 -57 -44 -43 -44 -44 -45 -44 -61 -90 -79 -72
-53 -33 -3 -41 -22 -3 -10 -4 -12 -107 -51 -59 -47 -57 -70 -68 -76 -57 -62 -60 -60 -75 -80 -65 -68 -67 -70 -46 -24 -27 -41 -47 -85 -106 -67 -74 -69 -73 -51 -41 -39 -50 -42 -43 -43 -50 -82 -89 -80
-71 -18 -9 -40 0 -3 -29 -3 -20 -44 -47 -50 -42 -52 -61 -65 -64 -51 -57 -52 -37 -33 -35 -48 -36 -44 -48 -43 -26 -40 -51 -39 -80 -73 -88 -69 -60 -65 -54 -49 -49 -48 -31 -33 -42 -61 -74 -72 -85
-12 -47 -35 -40 -76 0 0 -5 -12 -35 -44 -50 -42 -42 -60 -64 -45 -45 -43 -51 -47 -35 -32 -38 -29 -34 -33 -35 -38 -43 -35 -42 -66 -75 -100 -61 -74 -78 -59 -56 -51 -40 -25 -30 -44 -55 -85 -83 -88
-35 -38 -44 -92 -123 0 0 0 -59 -11 -7 -26 -50 -35 -56 -49 -35 -47 -42 -47 -51 -43 -38 -45 -35 -34 -30 -33 -29 -30 -19 -27 -47 -53 -65 -69 -101 -55 -60 -41 -53 -40 -27 -32 -62 -79 -88 -95 -165
-27 -34 -58 -109 -2 0 0 0 0 -9 -36 -19 -48 -39 -46 -38 -50 -48 -53 -46 -53 -57 -41 -38 -33 -42 -41 -29 -33 -30 -22 -29 -29 -37 -37 -78 -61 -53 -33 -63 -63 -60 -25 -40 -40 -61 -70 -103 -171
0 0 -51 -55 -57 0 0 0 -31 -7 -17 -17 -49 -51 -32 -47 -54 -47 -55 -54 -49 -59 -54 -36 -28 -39 -38 -37 -38 -44 -45 -37 -33 -33 -25 -31 -90 -59 -40 -74 -57 -42 -29 -30 -61 -60 -81 -62 -177
0 -44 -36 -69 -55 -9 -29 0 -13 -10 -32 -20 -43 -56 -53 -44 -46 -47 -46 -59 -60 -54 -51 -40 -35 -34 -33 -41 -25 -21 -14 -10 -16 -17 -15 -20 -30 -31 -28 -32 -39 -41 -24 -20 -51 -111 -102 -146 -116
-25 -47 -42 -32 -32 -19 -29 -23 -49 -12 -7 -53 -91 -70 -83 -65 -52 -48 -54 -56 -52 -47 -52 -45 -42 -39 -28 -30 -19 -18 -16 -15 -19 -23 -20 -28 -22 -24 -35 -23 -24 -30 -22 -27 -38 -113 -114 -150 -150
-73 -37 -63 -72 -52 -18 0 -21 -92 -119 0 -105 -89 -86 -95 -71 -66 -58 -65 -66 -55 -58 -48 -46 -55 -54 -37 -35 -31 -24 -17 -23 -22 -25 -20 -16 -17 -17 -24 -22 -18 -24 -33 -23 -28 -58 -60 -59 -69
-39 -35 -20 -11 -21 -12 -81 -77 -66 -152 -92 -148 -83 -104 -115 -102 -85 -68 -78 -96 -69 -63 -51 -47 -57 -72 -50 -31 -34 -31 -18 -25 -22 -22 -19 -16 -11 -15 -15 -21 -20 -12 -14 -27 -25 -25 -22 -40 -36
-54 -28 -11 -7 -4 -16 -141 -4 -101 -142 0 -175 -100 -98 -143 -129 -117 -100 -103 -83 -92 -79 -63 -55 -63 -76 -63 -42 -31 -36 -32 -22 -19 -21 -19 -21 -18 -17 -22 -22 -16 -14 -10 -19 -19 -15 -13 -16 -18
-62 -51 -83 -28 0 0 0 0 -113 -105 -172 -119 -111 -110 -89 -116 -117 -130 -118 -91 -90 -79 -72 -68 -66 -56 -67 -59 -39 -33 -27 -29 -27 -32 -33 -31 -40 -30 -34 -34 -24 -22 -20 -17 -17 -7 -14 -15 -11
-61 -107 -39 -48 -1 0 0 -10 -55 -94 -84 -72 -121 -92 -59 -95 -118 -135 -124 -107 -110 -95 -82 -75 -68 -68 -61 -62 -53 -41 -31 -24 -28 -34 -28 -29 -31 -34 -33 -28 -31 -34 -31 -20 -18 -8 -10 -15 -5
-83 -62 -67 -45 0 0 -1 -14 -123 -173 -173 -103 -115 -77 -83 -101 -133 -101 -127 -165 -134 -99 -127 -79 -89 -73 -63 -64 -54 -54 -53 -32 -26 -23 -26 -28 -27 -32 -34 -27 -22 -23 -28 -27 -21 -15 -8 -8 -8
-134 -26 -53 -4 -1 0 0 0 -162 -205 -201 -182 -155 -123 -137 -125 -116 -91 -165 -140 -94 -97 -121 -102 -88 -78 -67 -64 -68 -58 -55 -49 -31 -24 -24 -26 -33 -27 -32 -27 -28 -33 -38 -28 -25 -15 -5 -8 -7
Wind_Speed
19 19 18 18 20 22 23 22 20 23 22 19 23 19 21 12 17 22 21 21 25 24 24 17 23 4 5 6 4 5 4 3 1 5 2 3 4 6 9 9 13 13 11 14 11 14 8 6 11
18 18 17 18 21 23 21 20 23 22 22 24 23 22 14 17 16 25 16 25 23 23 26 25 26 16 9 4 3 6 2 2 3 2 4 5 6 9 7 10 10 8 7 7 13 10 7 6 5
17 18 17 19 20 22 22 21 22 23 23 21 20 18 16 20 24 25 23 27 23 23 25 27 26 20 14 1 3 5 5 1 4 2 1 3 6 7 6 6 4 3 7 4 6 1 3 3 6
17 18 17 17 20 20 21 23 23 23 22 18 22 22 20 21 24 25 28 27 23 24 26 27 26 23 13 12 9 7 10 10 7 4 4 6 1 1 1 2 1 10 8 5 5 2 3 6 7
14 11 11 18 17 21 22 22 22 21 20 21 19 22 25 16 25 26 28 28 26 24 22 29 29 24 19 26 19 7 5 5 3 11 11 9 6 2 1 1 3 9 10 11 5 4 5 9 8
18 17 12 18 18 21 19 21 22 20 21 23 24 24 23 26 28 26 28 29 25 24 27 25 26 24 10 12 14 15 7 16 12 13 11 8 3 1 3 5 8 12 12 8 7 3 6 8 4
20 15 11 17 19 21 21 21 21 21 23 23 24 25 26 28 28 26 28 29 23 27 23 24 23 21 15 27 22 9 7 2 7 10 9 7 5 4 5 8 10 9 7 8 5 5 4 6 9
20 16 13 14 19 20 20 21 22 23 25 26 26 24 26 29 29 25 28 29 27 23 21 22 21 22 20 13 23 1 2 7 8 10 7 4 4 5 6 10 8 8 7 6 6 10 13 13 14
17 15 11 10 16 18 19 20 20 20 26 21 20 26 28 30 29 26 27 27 24 19 20 23 22 21 19 18 11 13 0 5 10 9 7 7 9 8 9 8 9 8 8 9 13 15 14 14 14
11 11 6 8 8 18 19 20 21 22 22 22 27 28 29 30 30 28 28 28 28 26 22 21 23 24 22 21 18 17 14 12 14 12 11 10 8 10 10 10 9 9 10 13 15 15 14 14 15
15 5 11 8 7 9 18 19 19 22 19 23 28 29 29 30 29 27 28 28 28 26 23 22 23 20 19 22 21 20 18 16 14 13 12 11 12 11 11 11 10 9 10 13 14 14 13 15 15
9 10 12 7 11 7 14 21 22 19 17 26 28 29 30 29 28 27 27 29 29 27 25 23 22 21 14 18 20 21 20 18 16 15 12 12 12 12 11 11 10 9 10 11 11 13 12 13 16
9 13 12 6 13 13 15 10 18 16 22 25 28 28 28 28 28 28 28 29 29 28 26 25 24 23 19 19 20 20 20 18 16 14 11 13 12 11 11 11 10 10 13 11 13 12 11 15 16
13 12 12 15 12 13 5 7 15 5 23 24 26 28 28 28 27 28 28 29 29 28 27 27 26 24 20 22 21 20 19 17 16 13 12 12 13 13 12 12 12 11 13 15 16 13 14 16 16
9 14 14 15 18 17 15 10 17 10 19 22 24 27 28 27 27 27 28 29 29 28 28 28 27 25 24 22 20 20 16 16 16 15 15 13 14 14 13 13 13 12 13 15 16 18 19 18 16
11 14 15 17 18 18 20 16 12 8 14 20 23 26 28 28 27 26 28 29 29 27 28 28 27 26 25 24 22 21 18 16 15 18 17 15 16 14 14 14 13 12 13 12 14 17 19 17 16
15 15 14 15 15 14 16 18 20 29 18 16 22 25 28 28 27 27 28 29 29 29 28 28 28 27 25 25 23 22 19 17 16 17 17 17 15 15 14 13 13 12 12 12 13 16 17 17 16
15 15 17 18 18 19 22 26 22 26 28 21 19 27 30 29 28 28 28 28 28 29 29 28 27 26 25 24 24 23 20 17 18 19 18 17 16 16 15 14 14 13 13 13 12 13 13 15 14
12 12 16 17 19 19 20 22 21 26 34 15 26 30 29 30 29 28 28 29 28 28 30 29 28 25 27 26 25 24 24 20 20 18 18 18 16 17 16 14 14 13 14 15 14 14 14 14 16
13 14 18 18 19 18 20 18 24 19 21 18 28 31 30 29 30 30 30 29 29 28 29 29 27 25 29 28 25 23 22 20 20 19 19 17 19 18 17 15 15 15 15 15 16 16 16 16 18
17 20 20 21 18 19 18 19 23 20 12 38 35 32 33 26 31 31 30 30 30 29 27 28 30 22 27 28 24 20 18 17 20 20 19 18 18 19 18 16 16 16 16 16 16 17 17 18 18
20 20 18 15 16 23 18 20 22 21 42 31 37 31 35 33 33 32 31 31 32 31 29 28 29 28 26 27 27 27 27 25 24 22 20 19 20 21 21 20 18 17 17 17 17 17 18 18 20
19 15 14 15 19 24 22 21 18 14 12 43 38 36 37 38 37 35 33 32 32 32 31 25 25 28 29 28 27 28 26 24 22 23 23 20 20 19 21 22 21 19 20 18 17 16 16 17 12
8 13 16 16 18 23 21 23 20 24 25 38 39 12 33 39 37 35 35 33 33 32 32 31 23 23 26 26 28 28 22 20 23 24 24 22 21 22 22 22 23 21 21 20 19 18 18 18 19
19 21 23 23 22 23 19 21 25 20 22 30 36 32 36 40 38 37 37 31 35 33 33 33 29 25 23 21 26 26 24 5 4 19 23 24 23 24 24 24 24 23 21 21 21 21 21 20 19
20 21 22 27 23 23 18 22 19 18 8 18 29 33 16 35 40 39 35 35 32 29 26 28 32 28 25 23 23 19 13 19 15 12 20 24 24 25 24 24 25 25 23 21 22 23 22 21 19
20 25 17 19 19 22 19 19 16 14 11 8 15 21 22 41 40 39 37 35 34 29 20 19 24 30 28 26 23 8 13 23 28 21 21 23 22 24 26 26 26 25 26 25 23 24 24 22 20
19 12 21 20 22 22 19 18 15 16 17 16 7 18 23 35 33 34 37 41 35 33 20 12 27 25 20 25 25 24 20 5 21 22 22 23 25 25 26 26 28 27 26 26 25 25 25 24 24
12 18 16 16 16 17 18 15 16 17 17 17 3 9 18 8 13 34 41 38 20 28 29 17 20 23 18 14 25 23 22 20 21 23 25 24 24 24 26 26 26 27 28 28 27 26 27 26 26
19 18 19 19 19 14 16 14 16 14 12 10 8 11 19 26 26 33 25 22 21 22 26 20 20 17 16 15 17 21 24 19 21 24 26 22 25 25 24 24 26 25 25 27 22 29 28 28 27
Wind_Direction
143 148 145 145 122 107 95 98 110 94 101 118 111 122 112 145 129 115 155 154 108 92 98 171 97 355 273 291 264 234 231 237 307 17 26 26 35 38 38 37 44 45 39 43 37 39 21 9 16
129 153 153 135 104 91 95 107 95 103 104 96 90 99 150 126 154 106 152 138 86 86 100 88 116 46 0 290 246 211 203 195 252 277 53 53 41 41 34 34 39 37 33 28 38 22 7 355 329
125 158 127 96 100 93 88 101 95 89 109 118 112 128 144 135 103 127 116 109 81 76 82 92 81 61 32 234 183 188 186 141 230 200 107 51 40 37 29 28 27 20 186 110 17 249 322 307 337
115 137 146 63 69 131 115 96 91 97 106 130 102 86 140 121 129 122 106 95 79 77 82 82 80 66 39 164 168 183 193 194 193 207 194 188 154 147 348 8 347 186 195 210 203 250 288 333 336
75 317 356 73 55 93 89 91 93 102 108 107 135 93 103 170 97 97 101 102 87 79 93 116 109 74 60 90 164 56 67 192 153 184 179 184 191 205 356 333 216 195 193 185 215 232 332 357 353
194 229 67 90 84 94 94 94 95 96 104 111 97 94 120 134 110 102 106 110 90 83 131 136 132 78 46 40 54 70 182 180 179 175 180 186 194 222 214 203 197 186 186 199 208 274 338 354 335
191 218 55 86 89 103 116 108 96 91 100 107 127 109 120 131 125 108 110 118 88 123 152 141 145 155 181 113 79 40 44 167 180 179 182 187 195 202 204 194 193 197 210 209 238 243 266 209 183
196 182 73 83 103 101 108 111 96 96 93 113 121 128 119 135 130 109 118 135 117 156 161 150 149 149 159 178 74 140 79 174 178 179 188 194 199 201 201 189 203 209 222 235 234 199 183 177 163
230 92 78 68 100 102 99 94 131 123 101 129 148 123 121 127 129 117 116 158 165 177 168 149 151 154 163 168 175 174 209 188 176 183 191 193 193 202 197 204 202 211 217 214 195 179 182 176 166
291 79 343 23 19 95 108 104 103 105 105 112 99 108 118 127 133 128 130 136 158 158 169 166 149 143 154 162 171 173 177 185 178 186 189 195 209 203 202 203 210 212 210 198 186 187 193 178 167
241 9 68 32 323 292 95 103 144 97 114 131 115 116 127 132 135 131 137 147 160 170 171 168 153 163 169 161 165 166 173 181 186 191 197 201 197 199 207 206 213 217 220 202 192 188 191 166 160
289 265 235 350 273 333 84 156 116 129 147 124 125 120 128 136 141 139 137 151 164 170 172 175 173 167 197 176 169 164 166 174 185 192 209 209 210 208 214 212 217 224 216 205 199 190 190 177 161
296 251 256 334 266 274 255 64 106 166 107 109 120 126 130 139 141 151 150 162 169 174 174 170 168 165 190 179 172 167 170 178 190 203 221 212 209 215 219 225 233 228 207 209 191 194 198 174 162
261 264 267 262 301 297 331 312 116 227 111 117 125 136 138 140 139 145 155 164 171 179 174 170 172 176 195 178 176 174 181 191 198 217 226 223 212 217 223 223 224 235 213 194 187 203 192 176 166
290 266 292 280 265 261 268 285 137 86 110 124 130 142 149 150 143 145 158 167 172 177 179 172 175 183 187 187 187 182 198 199 199 203 212 218 217 214 219 222 216 226 217 203 194 180 179 171 171
314 299 292 293 268 269 254 267 161 119 125 134 138 141 155 161 155 158 160 168 173 179 174 174 178 184 188 182 185 184 189 205 216 204 200 207 203 213 217 215 218 223 217 216 208 191 180 190 177
300 293 303 292 282 282 274 269 266 200 154 139 146 148 159 160 166 169 166 165 170 177 178 174 178 185 185 184 183 189 195 195 204 205 211 204 213 213 220 225 220 230 227 222 209 196 199 195 177
304 304 288 280 273 285 265 261 268 220 166 150 145 158 167 167 168 172 173 171 173 179 185 184 181 194 195 196 196 195 202 212 202 190 206 213 214 214 211 225 224 230 233 224 234 224 230 218 234
315 312 294 284 280 286 288 270 266 239 190 151 159 168 167 172 176 181 178 177 171 181 183 189 191 204 194 195 199 198 189 201 197 198 208 214 219 220 215 234 233 244 239 236 239 247 256 279 287
297 300 293 291 287 296 293 301 263 267 240 242 180 176 172 168 182 177 179 176 174 163 173 195 203 207 189 191 197 205 207 212 208 211 210 226 217 219 225 230 241 244 245 244 247 257 258 278 298
281 285 289 289 287 292 302 298 262 266 243 212 209 186 184 167 177 179 174 174 177 170 163 168 194 226 205 199 211 226 236 233 218 210 223 233 232 232 232 242 246 242 247 256 258 249 269 274 306
270 285 292 297 293 276 284 286 269 265 200 226 213 184 186 182 183 184 176 176 181 181 177 168 180 204 218 213 208 206 198 200 208 210 222 226 231 233 228 231 242 245 252 263 267 267 270 289 294
270 289 300 299 285 280 276 276 277 275 242 205 204 194 190 194 189 184 183 180 180 189 180 156 159 176 187 215 213 212 219 229 240 227 223 232 236 238 232 231 228 245 242 267 282 300 305 305 231
263 282 291 297 294 273 277 258 271 234 189 197 199 215 178 193 188 186 198 203 186 192 194 180 153 156 164 164 203 193 227 249 237 228 231 235 242 242 236 232 231 237 245 261 273 285 289 286 296
264 268 272 268 273 271 290 268 247 211 202 184 180 174 185 193 192 192 189 175 191 184 187 195 176 163 157 155 176 184 175 100 211 258 242 240 245 238 233 233 228 240 250 256 260 260 262 246 252
257 262 263 255 270 273 292 269 281 313 32 149 177 181 236 226 202 194 182 182 179 169 163 171 187 175 165 165 170 160 260 255 266 288 262 250 249 242 241 237 237 237 240 264 264 254 251 244 230
260 252 274 272 282 277 280 283 296 303 336 2 136 161 170 203 200 192 187 183 183 173 160 157 164 184 177 173 173 150 281 236 234 264 266 259 267 248 239 243 236 238 246 256 267 249 240 234 223
264 262 254 269 266 263 278 277 284 286 283 283 116 154 231 235 237 234 192 209 227 228 202 256 240 177 165 175 178 181 170 174 268 267 270 268 259 252 246 252 244 246 247 248 254 249 253 251 242
262 254 264 269 269 267 271 275 287 281 281 277 233 146 238 175 243 222 212 227 248 243 241 253 254 252 264 267 253 259 264 268 270 268 264 268 269 269 258 258 259 257 248 247 250 261 256 254 262
259 250 251 261 261 271 282 280 271 290 298 312 304 266 253 244 244 229 245 248 246 248 247 254 257 263 268 273 273 268 262 273 273 271 266 276 267 272 276 276 270 275 276 263 287 256 261 265 266